Location: Pitton
(51.0667°N, 1.7000°W)
Time: 00:36:50
(UTC+00:00)

Cosmos 2227 Rocket - Pass Details

Date: 17 September 2019
Orbit: 837 x 847 km, 71.0° (Epoch: 12 October)

Event Time Altitude Azimuth Distance (km) Brightness Sun altitude
Rises 20:59:54 0° 208° (SSW) 3,385 5.2 -24.4°
Reaches altitude 10° 21:02:20 10° 209° (SSW) 2,455 4.5 -24.7°
Maximum altitude 21:07:59 88° 299° (WNW) 851 2.1 -25.4°
Drops below altitude 10° 21:13:42 10° 30° (NNE) 2,478 4.8 -26.0°
Sets 21:16:09 0° 31° (NNE) 3,418 5.5 -26.3°
